Regional Weather Roundup
Issued by NWS

Home | Current Version | Previous Version | Text Only | Print | Product List | Glossary Off
Versions: 1 2 3 4 5 6 7 8 9 10 11 12 13 14 15 16 17 18 19 20 21 22 23 24 25 26 27 28 29 30 31 32 33 34 35 36 37 38 39 40 41 42 43 44 45 46 47 48 49 50

000
ASUS45 KSLC 291910
RWRUT

UTAH REGIONAL WEATHER ROUNDUP
NATIONAL WEATHER SERVICE SALT LAKE CITY UT
100 PM MDT WED JUL 29 2015

UTZ001>011-023>025-292000-

NORTHERN UTAH

CITY           SKY/WX    TMP DP  RH WIND       PRES   REMARKS
BRIGHAM CITY   SUNNY     76  28  17 N3        30.30F
HILL AFB       SUNNY     76  34  21 VRB2      30.32F
LOGAN          SUNNY     73  32  22 VRB3      30.32F
OGDEN          SUNNY     78  35  21 VRB3      30.30F
PROVO AIRPORT  NOT AVBL
SALT LAKE CITY MOSUNNY   79  29  16 NW7       30.29F
VERNAL         SUNNY     78  17  10 VRB5      30.32F
WENDOVER       SUNNY     77  30  18 SE6       30.31F
HEBER CITY     SUNNY     73  25  16 CALM      30.34F
WEST JORDAN    SUNNY     77  32  19 NE5       30.32F

$$

UTZ012>022-026-027-292000-

SOUTHERN/CENTRAL UTAH

CITY           SKY/WX    TMP DP  RH WIND       PRES   REMARKS
BLANDING       SUNNY     86  31  14 SW5       30.35F
BRYCE CANYON   SUNNY     80  28  15 N7        30.44S
CEDAR CITY     SUNNY     82  25  12 VRB5      30.31F
DELTA          SUNNY     80  20  10 N6        30.29F
HANKSVILLE     SUNNY     90  27  10 E9        30.23F
MILFORD        SUNNY     84  24  11 N12G17    30.28F
MOAB/CYNLANDS  SUNNY     89  23   9 VRB3      30.21F
PRICE          SUNNY     86  23  10 W5        30.30F
ST GEORGE      CLEAR     91  34  13 S3        30.11F
KANAB          SUNNY     91  28  10 N3        30.26F

$$

REGIONAL REPORTS     COLORADO/ARIZONA

CITY           SKY/WX    TMP DP  RH WIND       PRES   REMARKS
CRAIG, CO      SUNNY     79  28  15 VRB5      30.37F
GRAND JUNCTION SUNNY     85  34  16 SW6       30.24F
RIFLE          MOSUNNY   85  31  14 VRB3      30.28F
MONTROSE       SUNNY     84  36  18 NW8       30.31F
CORTEZ         SUNNY     88  33  14 SW7       30.28F
PAGE, AZ       PTSUNNY   91  27  10 N8        30.18F
GRAND CANYON   SUNNY     85  25  11 NE13      30.35F
KINGMAN        MOSUNNY   94  52  24 W15G22    30.13S HX  91
FLAGSTAFF      MOSUNNY   76  49  38 S8        30.37F

$$

REGIONAL REPORTS    NEVADA/IDAHO/WYOMING

CITY           SKY/WX    TMP DP  RH WIND       PRES   REMARKS
LAS VEGAS, NV  MOSUNNY   98  29   8 NE7       29.99F HX  92
ELY            SUNNY     79  25  13 VRB6      30.35F
ELKO           SUNNY     80  20  10 VRB3      30.29F
POCATELLO, ID  SUNNY     76  34  21 SE6       30.32F
BURLEY         SUNNY     77  31  18 CALM      30.29F
EVANSTON, WY   SUNNY     72  13  10 S5        30.43F
ROCK SPRINGS   SUNNY     69  25  19 MISG      30.42F
KEMMERER       SUNNY     68  21  17 SW7       30.46S

$$



USA.gov is the U.S. government's official web portal to all federal, state and local government web resources and services.